Location: Clinton NY
(43.0598°N, 75.3602°W)
Time: 04:14:22
(UTC-04:00)

ISS - All Passes

Search period start: 31 August 2014 00:00
Search period end: 10 September 2014 00:00
Orbit: 414 x 419 km, 51.6° (Epoch: 31 August)

Date Brightness Start Highest point End Pass type
(mag) Time Alt. Az. Time Alt. Az. Time Alt. Az.
31 Aug - 09:50:05 10° S 09:52:11 16° SE 09:54:17 10° E daylight
31 Aug - 11:25:15 10° WSW 11:28:34 69° NNW 11:31:54 10° NE daylight
31 Aug - 13:03:06 10° WNW 13:05:45 21° NNW 13:08:24 10° NE daylight
31 Aug - 14:40:46 10° NW 14:43:19 20° N 14:45:52 10° ENE daylight
31 Aug - 16:17:19 10° NW 16:20:36 52° NNE 16:23:52 10° ESE daylight
31 Aug - 17:54:29 10° W 17:57:07 22° SW 17:59:45 10° S daylight
01 Sep - 10:36:44 10° SW 10:40:03 72° SE 10:43:22 10° ENE daylight
01 Sep - 12:14:11 10° WNW 12:17:03 26° NNW 12:19:55 10° NE daylight
01 Sep - 13:52:08 10° NW 13:54:34 19° N 13:57:00 10° NE daylight
01 Sep - 15:28:52 10° NW 15:31:59 36° NNE 15:35:06 10° E daylight
01 Sep - 17:05:37 10° WNW 17:08:44 36° SW 17:11:49 10° SSE daylight
02 Sep - 09:48:25 10° SSW 09:51:34 41° SE 09:54:44 10° ENE daylight
02 Sep - 11:25:17 10° W 11:28:21 33° NNW 11:31:26 10° NE daylight
02 Sep - 13:03:22 10° NW 13:05:48 18° N 13:08:13 10° NE daylight
02 Sep - 14:40:23 10° NW 14:43:18 27° NNE 14:46:13 10° E daylight
02 Sep - 16:16:57 10° WNW 16:20:15 64° SW 16:23:33 10° SE daylight
03 Sep - 09:00:22 10° SSW 09:03:07 24° SE 09:05:53 10° E daylight
03 Sep - 10:36:27 10° WSW 10:39:41 47° NNW 10:42:56 10° NE daylight
03 Sep - 12:14:29 10° WNW 12:17:00 19° N 12:19:31 10° NE daylight
03 Sep - 13:51:51 10° NW 13:54:33 22° NNE 13:57:15 10° ENE daylight
03 Sep - 15:28:21 10° NW 15:31:42 77° NNE 15:35:01 10° ESE daylight
03 Sep - 17:06:11 10° W 17:08:01 14° SW 17:09:51 10° SSW daylight
04 Sep - 08:12:47 10° SSE 08:14:42 15° SE 08:16:38 10° E daylight
04 Sep - 09:47:44 10° WSW 09:51:03 74° NNW 09:54:23 10° NE daylight
04 Sep - 11:25:31 10° WNW 11:28:12 22° NNW 11:30:53 10° NE daylight
04 Sep - 13:03:14 10° NW 13:05:45 20° N 13:08:17 10° ENE daylight
04 Sep - 14:39:48 10° NW 14:43:03 49° NNE 14:46:18 10° ESE daylight
04 Sep - 16:16:52 10° W 16:19:36 24° SW 16:22:19 10° S daylight
05 Sep - 08:59:09 10° SW 09:02:27 66° SE 09:05:45 10° ENE daylight
05 Sep - 10:36:30 10° WNW 10:39:24 27° NNW 10:42:18 10° NE daylight
05 Sep - 12:14:29 10° NW 12:16:55 18° N 12:19:20 10° NE daylight
05 Sep - 13:51:15 10° NW 13:54:20 34° NNE 13:57:25 10° E daylight
05 Sep - 15:27:57 10° WNW 15:31:06 40° SW 15:34:14 10° SSE daylight
06 Sep - 08:10:46 10° SSW 08:13:52 38° SE 08:17:00 10° ENE daylight
06 Sep - 09:47:32 10° W 09:50:37 35° NNW 09:53:44 10° NE daylight
06 Sep - 11:25:36 10° NW 11:28:02 18° N 11:30:28 10° NE daylight
06 Sep - 13:02:40 10° NW 13:05:33 26° NNE 13:08:25 10° ENE daylight
06 Sep - 14:39:12 10° WNW 14:42:31 70° SW 14:45:50 10° SE daylight
07 Sep - 07:22:41 10° S 07:25:20 22° SE 07:28:01 10° E daylight
07 Sep - 08:58:37 10° WSW 09:01:52 51° NNW 09:05:08 10° NE daylight
07 Sep - 10:36:36 10° WNW 10:39:09 20° N 10:41:41 10° NE daylight
07 Sep - 12:14:02 10° NW 12:16:42 22° NNE 12:19:22 10° ENE daylight
07 Sep - 13:50:32 10° NW 13:53:52 71° NNE 13:57:11 10° ESE daylight
07 Sep - 15:28:11 10° W 15:30:13 15° SW 15:32:15 10° S daylight
08 Sep - 06:35:10 10° SSE 06:36:51 13° SE 06:38:32 10° E daylight
08 Sep - 08:09:49 10° WSW 08:13:08 81° NNW 08:16:29 10° NE daylight
08 Sep - 09:47:32 10° WNW 09:50:15 23° NNW 09:52:59 10° NE daylight
08 Sep - 11:25:18 10° NW 11:27:48 19° N 11:30:18 10° NE daylight
08 Sep - 13:01:53 10° NW 13:05:07 45° NNE 13:08:20 10° ESE daylight
08 Sep - 14:38:53 10° WNW 14:41:42 26° SW 14:44:31 10° SSE daylight
09 Sep - 07:21:10 10° SW 07:24:27 60° SE 07:27:45 10° ENE daylight
09 Sep - 08:58:26 10° W 09:01:22 28° NNW 09:04:18 10° NE daylight
09 Sep - 10:36:26 10° NW 10:38:51 18° N 10:41:16 10° NE daylight
09 Sep - 12:13:15 10° NW 12:16:18 32° NNE 12:19:20 10° E daylight
09 Sep - 13:49:54 10° WNW 13:53:06 44° SW 13:56:16 10° SSE daylight
